Miscellaneous Local Product
Issued by NWS Hastings, NE

Home | Current Version | Previous Version | Graphics & Text | Print | Product List | Glossary On
Versions: 1 2 3 4 5 6 7 8 9 10 11 12 13 14 15 16 17 18 19 20 21 22 23 24 25 26 27 28 29 30 31 32 33 34 35 36 37 38 39 40 41 42 43 44 45 46 47 48 49 50
000
AXUS43 KGID 230102
MISGRI

GID CWA HOURLY WEATHER ROUNDUP
NATIONAL WEATHER SERVICE HASTINGS NE
800 PM CDT TUE JUL 22 2014

NOTE: "FAIR" INDICATES FEW OR NO CLOUDS BELOW 12,000 FEET WITH NO
SIGNIFICANT WEATHER AND/OR OBSTRUCTIONS TO VISIBILITY.

...SOUTH CENTRAL NEBRASKA...

CITY           SKY/WX    TMP DP  RH WIND       PRES   REMARKS
GRAND ISLAND   CLEAR     82  69  64 NE8       30.15S
HASTINGS       CLEAR     84  67  56 NE14      30.14R
KEARNEY        CLEAR     84  66  54 NE15      30.16R
ORD            SUNNY     80  64  58 NE8       30.16S
YORK           CLEAR     82  72  69 N12       30.14R
AURORA         CLEAR     83  70  64 NE12      30.15R
LEXINGTON      SUNNY     85  67  54 E9        30.16S
HOLDREGE       CLEAR     83  66  56 NE8       30.15R
HEBRON         CLEAR     88  69  52 NE9       30.09R HX  92

...NEBRASKA PANHANDLE...

CITY           SKY/WX    TMP DP  RH WIND       PRES   REMARKS
CHADRON        SUNNY     89  59  36 E17       30.14S
ALLIANCE       SUNNY     90  53  28 SE14      30.21R
SCOTTSBLUFF    MOSUNNY   89  59  36 E14       30.19S
SIDNEY         SUNNY     88  56  33 SE14      30.25R

...WESTERN AND NORTH CENTRAL NEBRASKA...

CITY           SKY/WX    TMP DP  RH WIND       PRES   REMARKS
VALENTINE      SUNNY     84  61  45 E9        30.20S
AINSWORTH      SUNNY     78  63  59 E6        30.22S
ONEILL         SUNNY     81  62  53 E7        30.19S
BROKEN BOW     SUNNY     83  65  54 E10       30.18S
IMPERIAL       SUNNY     88  61  40 E12       30.18S
NORTH PLATTE   SUNNY     85  64  49 E15       30.17R
MCCOOK         SUNNY     86  64  47 E16       30.14S

...EASTERN NEBRASKA...

CITY           SKY/WX    TMP DP  RH WIND       PRES   REMARKS
NORFOLK        CLEAR     81  66  60 N13       30.16R
SO SIOUX CITY  CLEAR     82  64  54 N10       30.14R
TEKAMAH        CLEAR     83  68  60 N8        30.12S
COLUMBUS       CLEAR     81  66  61 NE10      30.16R
ALBION         CLEAR     78  66  66 NE5       30.18S
OMAHA EPPLEY   PTCLDY    83  68  60 N18       30.10R
OFFUTT AFB     PTCLDY    83  71  65 N8        30.10R
MILLARD        CLEAR     83  70  64 N5        30.11R
LINCOLN        CLEAR     86  68  54 N15       30.11R
NEBRASKA CITY  CLEAR     82  74  74 N9        30.08S
BEATRICE       CLEAR     83  71  67 NE7       30.08S
FALLS CITY     CLEAR     87  78  74 N7        30.04R HX 100

...NORTHERN KANSAS...

CITY           SKY/WX    TMP DP  RH WIND       PRES   REMARKS
GOODLAND       SUNNY     92  58  31 SE7       30.17S HX  91
HILL CITY      CLEAR     95  68  41 E6        30.09S HX  99
NORTON         CLEAR     88  63  42 NE13      30.12R
PHILLIPSBURG   CLEAR     91  70  49 NE13      30.09R HX  97
SMITH CENTER   CLEAR     88  72  58 NE18      30.09R HX  94
HAYS           PTCLDY    91  64  40 S8        30.08S HX  93
RUSSELL        CLEAR     93  72  50 S6        30.06R HX 101
CONCORDIA      CLEAR     92  74  55 NE13      30.06R HX 101
SALINA         CLEAR     98  69  38 W6        30.03R HX 104
TOPEKA         CLEAR     97  74  47 N3        30.00R HX 108



USA.gov is the U.S. government's official web portal to all federal, state and local government web resources and services.